Weather History for Madera, CA

Change the Weather History Date:

Tuesday, December 18, 2012

  Actual Average Record
Temperature  
Mean Temperature 44 °F 45 °F  
Max Temperature 51 °F 54 °F 65 °F (2013)
Min Temperature 37 °F 36 °F 28 °F (2006)
Degree Days  
Heating Degree Days 21    
Month to date heating degree days 263  
Since 1 July heating degree days 631  
Cooling Degree Days 0    
Month to date cooling degree days 0  
Year to date cooling degree days 1737  
Moisture  
Dew Point 37 °F    
Average Humidity 67    
Maximum Humidity 93    
Minimum Humidity 41    
Precipitation  
Precipitation 0.01 in 0.06 in 0.77 in (2007)
Month to date precipitation 0.98 0.82  
Year to date precipitation 9.38 11.14  
Since 1 July precipitation 3.16 3.14  
Snow  
Snow 0.00 in - - ()
Month to date snowfall 0.0  
Since 1 July snowfall 0.0  
Snow Depth 0.00 in    
Sea Level Pressure  
Sea Level Pressure 30.00 in    
Wind  
Wind Speed 14 mph (NW)    
Max Wind Speed 26 mph    
Max Gust Speed 31 mph    
Visibility 10 miles    
Events Snow    
T = Trace of Precipitation, MM = Missing Value Source: NWS Daily Summary

Daily Weather History Graph

Daily Weather History Graph

Search for Another Location

Airport:

Trip Planner

Search our weather history database for the weather conditions in past years. The results will help you decide how hot, cold, wet, or windy it might be!

Date:

Astronomy

Dec. 18, 2012 Rise Set
Actual Time 7:08 AM PST 4:46 PM PST
Civil Twilight 6:39 AM PST 5:15 PM PST
Nautical Twilight 6:07 AM PST 5:47 PM PST
Astronomical Twilight 5:35 AM PST 6:19 PM PST
Moon 10:58 AM PST (12/18) 11:08 PM PST (12/18)
Length of Visible Light 10h 35m
Length of Day
9h 37m
Waxing Crescent, 36% of the Moon is Illuminated
Dec 18
Waxing Crescent
Dec 19
First Quarter
Dec 28
Full
Jan 4
Last Quarter
Jan 11
New

Hourly Weather History & Observations

Time (PST) Temp. Windchill Dew Point Humidity Pressure Visibility Wind Dir Wind Speed Gust Speed Precip Events Conditions
12:53 AM 50.0 °F - 48.0 °F 93% 29.97 in 10.0 mi North - - N/A   Overcast
1:02 AM 50.0 °F - 48.2 °F 94% 29.98 in 10.0 mi North - - N/A   Overcast
1:12 AM 50.0 °F - 48.2 °F 94% 29.99 in 10.0 mi North - - N/A   Overcast
1:22 AM 50.0 °F - 48.2 °F 94% 29.99 in 10.0 mi North - - N/A   Overcast
1:46 AM 48.2 °F - 46.4 °F 93% 29.98 in 10.0 mi North - - N/A   Overcast
1:53 AM 48.0 °F - 46.0 °F 93% 29.98 in 10.0 mi North - - N/A   Overcast
2:08 AM 48.2 °F - 46.4 °F 93% 29.97 in 10.0 mi North - - N/A   Overcast
2:25 AM 46.4 °F - 44.6 °F 93% 29.97 in 10.0 mi North - - N/A   Mostly Cloudy
2:53 AM 46.0 °F - 44.1 °F 93% 29.97 in 10.0 mi North - - N/A   Partly Cloudy
3:53 AM 44.1 °F - 42.1 °F 93% 29.96 in 10.0 mi North - - N/A   Clear
4:53 AM 45.0 °F - 41.0 °F 86% 29.96 in 10.0 mi North - - N/A   Overcast
5:53 AM 42.1 °F - 39.0 °F 89% 29.97 in 10.0 mi North - - N/A   Mostly Cloudy
6:45 AM 44.6 °F - 39.2 °F 81% 29.98 in 10.0 mi North - - N/A   Overcast
6:53 AM 45.0 °F 40.1 °F 39.9 °F 82% 29.98 in 10.0 mi WNW 9.2 mph - N/A   Overcast
7:53 AM 44.1 °F 38.1 °F 39.9 °F 85% 29.99 in 10.0 mi WNW 11.5 mph - N/A   Overcast
8:53 AM 45.0 °F 39.3 °F 39.9 °F 82% 30.01 in 10.0 mi WNW 11.5 mph - N/A   Overcast
9:53 AM 45.0 °F 39.3 °F 37.0 °F 74% 30.01 in 10.0 mi NW 11.5 mph - N/A   Overcast
10:53 AM 46.0 °F 39.9 °F 37.0 °F 71% 30.02 in 10.0 mi NW 13.8 mph - N/A   Overcast
11:36 AM 48.2 °F - 37.4 °F 66% 30.00 in 10.0 mi NW 15.0 mph - N/A   Scattered Clouds
11:53 AM 48.9 °F - 36.0 °F 61% 30.00 in 10.0 mi NW 10.4 mph 21.9 mph 0.01 in   Clear
12:53 PM 51.1 °F - 33.1 °F 50% 29.98 in 10.0 mi NNW 17.3 mph 23.0 mph N/A   Clear
1:53 PM 51.1 °F - 30.0 °F 44% 29.97 in 10.0 mi NW 21.9 mph 27.6 mph N/A   Clear
2:53 PM 51.1 °F - 28.0 °F 41% 29.98 in 10.0 mi NNW 23.0 mph 29.9 mph N/A   Clear
3:53 PM 50.0 °F - 30.9 °F 48% 29.98 in 10.0 mi NW 17.3 mph 25.3 mph N/A   Clear
4:53 PM 46.9 °F - 27.0 °F 46% 30.00 in 10.0 mi NW 17.3 mph 23.0 mph N/A   Clear
5:53 PM 43.0 °F 37.2 °F 28.9 °F 58% 30.03 in 10.0 mi NNW 10.4 mph - N/A   Clear
6:53 PM 43.0 °F 38.2 °F 28.0 °F 56% 30.05 in 10.0 mi NW 8.1 mph - N/A   Clear
7:53 PM 43.0 °F 36.0 °F 28.0 °F 56% 30.06 in 10.0 mi NW 13.8 mph - N/A   Clear
8:53 PM 39.9 °F 34.5 °F 28.0 °F 63% 30.07 in 10.0 mi WNW 8.1 mph - N/A   Clear
9:53 PM 39.9 °F 32.1 °F 28.9 °F 65% 30.09 in 10.0 mi WNW 13.8 mph - N/A   Clear
10:53 PM 41.0 °F 32.8 °F 30.0 °F 65% 30.12 in 10.0 mi NW 16.1 mph 24.2 mph N/A   Clear
11:53 PM 37.0 °F 29.8 °F 28.9 °F 73% 30.14 in 10.0 mi NNW 10.4 mph - 0.00 in Snow Light Snow